sat.trackr.live / text

‹ back to catalog

LEMUR-2-AMANDA-SVANTE

NORAD 48269 · 2021-034B

PAYLOAD ACTIVE UNKNOWN

§ Identity

Operator
Country
US
Launch date
2021-04-29
Launch site
FRGUI
Launch vehicle
Mass (kg)
RCS (m²)

Purposes: earth_obs

External: N2YO · Heavens-Above · Gunter

§ Orbital elements

Epoch: 2026-09-19T22:44:02.883840Z

Period
93.51 min
Inclination
97.5684°
Eccentricity
0.0001428
Mean motion
15.39933926 rev/d
Perigee alt
445.3 km
Apogee alt
447.3 km
Semi-major
6,824.4 km
B*
7.1270e-4
RAAN
344.0901°
Arg perigee
229.9646°
Mean anomaly
130.1475°
Rev number
29,561

§ Raw data

LEMUR-2-AMANDA-SVANTE1 48269U 21034B   26262.94725560  .00028357  00000+0  71270-3 0  99992 48269  97.5684 344.0901 0001428 229.9646 130.1475 15.39933926295618

JSON: /api/v1/satellites/48269 · /tle

For live sub-satellite position, see the globe view (requires WebGL).

§ Visibility from observer

Set your observer location to see the next 7 days of passes ≥ 10°. The values pass through the URL so the page stays shareable.

No JS? Fill the form by hand. The geolocation button needs JavaScript.

§ Radio — SatNOGS DB

ModeDescriptionDownlinkUplink
FM Mode U - Transmitter 401.100 MHz

1 transmitter · refreshed weekly from db.satnogs.org